Location: Unspecified
(0.0000°N, 0.0000°E)
Time: 18:38:50
(UTC+02:00)

Daily predictions for brighter satellites

Satellite Brightness Start Highest point End
(mag) Time Altitude Azimuth Time Altitude Azimuth Time Altitude Azimuth
NOSS 3-2 (C) 3.7 20:21:07 10° SSW 20:26:57 73° WNW 20:32:47 10° NNE
ATLAS 2A CENTAUR R/B 3.4 20:29:05 10° NNW 20:33:19 44° NE 20:46:38 10° ESE
Cosmos 1400 Rocket 2.8 20:33:46 10° S 20:37:53 67° E 20:41:56 10° NNE
Cosmos 1725 Rocket 4.1 20:32:09 10° N 20:38:19 89° W 20:44:34 10° S
Cosmos 1455 2.8 20:36:09 10° NNE 20:39:35 35° E 20:43:04 10° SSE
CENTAUR R/B 2.8 20:37:34 10° S 20:42:30 33° ESE 20:47:35 10° NE
Orbus 7S 3.6 20:43:13 10° NW 20:45:35 47° NNE 20:48:26 13° ESE
ARIANE 5 DEB (SYLDA) 3.2 20:38:34 10° W 20:46:21 85° S 20:49:26 12° E
Cosmos 2344 4.5 20:39:08 10° S 20:46:55 29° ESE 20:53:32 10° ENE
ARIANE 5 R/B 0.5 20:45:23 10° W 20:47:24 85° N 20:49:27 14° E
Delta 198 3.8 20:43:28 10° NW 20:48:28 63° NNE 20:51:59 15° ESE
SWIFT 2.3 20:45:04 10° WSW 20:49:17 85° NNW 20:53:28 10° ENE
SPOT 3 Rocket 4.2 20:47:10 10° S 20:52:18 60° WSW 20:57:26 10° NNW
Cosmos 2233 Rocket 3.9 20:46:51 10° N 20:52:56 70° E 20:59:07 10° S
Maqsat-H 4.1 20:47:20 10° W 20:53:26 65° S 21:20:58 17° E
Maqsat-H 4.1 20:47:20 10° W 20:53:26 65° S 21:20:55 17° E
Maqsat-H 4.1 20:47:20 10° W 20:53:26 65° S 21:20:54 17° E
Maqsat-H 4.1 20:47:20 10° W 20:53:26 65° S 21:20:57 17° E
Cosmos 1943 Rocket 3.5 20:50:07 10° SE 20:53:39 17° ESE 20:57:10 10° ENE
H-2A R/B 4.2 20:52:05 15° ESE 20:53:53 20° ENE 20:56:45 10° NNE
Cosmos 1538 Rocket 4.1 20:49:32 10° N 20:54:43 60° ENE 20:59:51 10° SSE
CSL-04 DEB 4.3 20:50:55 10° SSE 20:54:54 69° ENE 20:58:47 10° N
FREGAT/IRIS 2.9 21:00:17 17° SSE 21:02:21 44° E 21:05:13 10° N
Meteor 2-12 Rocket 4.4 20:56:33 10° N 21:02:38 78° E 21:08:45 10° S
COSMOS 2455 2.8 20:58:29 10° SSW 21:04:30 88° ESE 21:10:30 10° NNE
ALOS 2.2 21:03:35 10° SSE 21:08:15 75° E 21:12:54 10° N
Cosmos 1315 Rocket 2.7 21:06:05 10° S 21:10:04 87° E 21:14:03 10° N
Cosmos 1633 Rocket 4.3 21:07:20 10° SSW 21:11:29 44° W 21:15:40 10° NNW
Cosmos 990 Rocket 4.2 21:07:44 10° SSW 21:12:53 74° WNW 21:18:02 10° N
Cosmos 2369 Rocket 2.1 21:08:36 10° S 21:14:08 63° ESE 21:19:41 10° NNE
FengYun 1-2 T 4.4 21:11:21 14° SSE 21:15:52 50° ENE 21:21:11 10° N
Cosmos 1892 3.4 21:17:27 32° E 21:17:27 32° E 21:20:40 10° NNE
Cosmos 1125 Rocket 4.5 21:23:48 27° E 21:23:48 27° E 21:27:09 10° NE
TIMED 4.5 21:20:39 10° S 21:24:56 57° ESE 21:29:12 10° NNE
Cosmos 1816 Rocket 4.5 21:18:55 10° S 21:25:05 61° E 21:31:10 10° NNE
Cosmos 1707 Rocket 3.4 21:23:33 10° N 21:27:53 83° E 21:30:35 23° S
ASC 2 Rocket 3.4 21:26:27 10° SW 21:30:06 38° SSE 21:30:06 38° SSE
Cosmos 1933 Rocket 3.7 21:26:35 10° S 21:30:55 71° W 21:35:12 10° N
Cosmos 773 Rocket 4.2 21:26:31 10° NNW 21:31:45 71° WSW 21:36:03 15° S
Aureole 1 4.3 21:28:39 10° SSW 21:32:18 79° WNW 21:35:21 10° N
ASTRO E2 3.8 21:29:23 10° W 21:33:05 35° SSW 21:33:59 31° S
Cosmos 1680 Rocket 3.9 21:28:10 10° N 21:33:07 41° ENE 21:33:33 40° E
Resurs 01 Rocket 2.5 21:38:10 34° NE 21:38:10 34° NE 21:41:18 10° N
SJ-6B 2.9 21:36:09 34° S 21:37:35 66° WSW 21:41:17 10° NNW
Ariane H10+ 3.0 21:26:58 10° W 21:42:00 84° N 21:43:32 46° E
SL-27 R/B 4.2 21:39:29 10° NW 21:42:40 32° WSW 21:44:26 20° SSW
Cosmos 2242 Rocket 4.5 21:39:07 10° NNE 21:41:58 34° NE 21:41:58 34° NE
Cosmos 1513 Rocket 4.3 21:42:01 10° N 21:48:04 71° E 21:50:21 40° SSE
GPS 2-14 Rocket1 3.8 21:46:11 10° W 21:49:30 36° SW 21:49:30 36° SW
CZ-3B DEB 3.9 21:45:44 10° NW 21:55:21 56° WSW 22:01:24 23° S
Milstar 3 Cent rocket 4.2 21:52:29 10° WSW 21:56:24 20° SSW 21:57:38 19° S
Meteor 2-3 Rocket 4.1 21:55:03 10° SSW 22:00:45 63° W 22:06:25 10° N
Meteor 2-10 Rocket 3.8 22:02:40 10° N 22:07:32 63° NNE 22:07:32 63° NNE
ARIANE 5 DEB (SYLDA) 3.7 22:07:05 10° W 22:09:25 59° W 22:09:25 59° W
Ariane H10 4.3 21:08:00 10° W 22:11:27 79° N 22:15:00 46° ENE
ARIANE 5 DEB (SYLDA) 4.1 21:47:16 10° W 22:11:44 90° S 22:12:25 74° E
Ariane H10-3 4.1 22:03:07 10° W 22:16:55 44° SSW 22:16:55 44° SSW
Spot 2 Rocket 4.4 22:23:21 46° NW 22:23:21 46° NW 22:27:01 10° NNW
Cosmos 2082 Rocket 2.8 22:21:07 10° NNW 22:25:32 54° NW 22:25:32 54° NW
H-10 deb 3.6 22:29:54 10° W 23:10:01 - E 22:31:59 43° W
Cosmos 1833 Rocket 3.7 22:30:41 10° NNW 22:34:33 42° NW 22:34:33 42° NW
Cosmos 1943 Rocket 3.7 22:32:08 10° SW 22:37:07 33° WNW 22:42:05 10° NNW
ARIANE 5 R/B 4.2 22:28:51 10° W 22:43:01 54° W 22:43:01 54° W
Centaur AC-64 4.5 22:19:32 10° WNW 22:52:15 74° WSW 22:52:15 74° WSW
